Theta_e
287 287 287 288 288 288 289 289 289 290 290 291 291 291 292 292 293 293 294 295 295 295 296 296 296 297 297 298 298 299 299 300 300 300 300 301 302 302 303 302 302 302 302 302 302 302 303 303 304 304 304 306 307 309 311 313 315 317 320 321 321 320 319 319 319 320 321 322 322
287 287 287 287 288 288 288 289 289 290 290 291 291 292 292 292 293 293 294 294 295 295 296 296 296 296 296 297 297 298 298 299 299 300 300 301 301 302 302 302 302 302 302 302 302 302 303 303 303 304 305 306 307 308 311 313 314 316 318 320 321 321 321 320 319 320 320 322 322
287 287 287 288 288 288 288 288 289 289 290 290 291 291 292 292 292 293 293 294 294 295 295 295 295 296 296 296 297 297 298 298 299 299 299 300 300 300 300 301 301 301 301 301 302 302 303 303 303 304 304 306 307 309 311 313 315 316 317 319 321 322 322 321 321 320 320 321 322
287 287 287 287 287 288 288 288 289 289 290 290 291 291 292 292 292 293 293 294 294 295 295 296 296 296 296 297 298 298 298 298 298 298 299 299 300 300 300 301 300 301 301 302 302 302 302 303 303 304 305 306 308 310 312 314 315 317 318 320 321 322 322 321 321 321 321 321 321
287 287 287 287 287 287 288 288 289 289 289 290 291 291 291 292 293 293 293 293 294 295 295 296 296 296 297 297 297 298 298 298 297 298 299 300 300 300 301 301 302 303 303 303 303 303 303 303 303 304 305 306 308 310 312 314 315 316 317 320 320 321 322 322 322 322 321 321 321
287 287 287 287 287 287 288 288 288 289 289 290 290 290 291 291 292 292 293 293 294 295 295 295 295 296 296 297 297 297 297 298 298 298 298 299 299 299 299 300 301 302 303 304 304 304 304 304 304 305 305 307 308 310 312 314 315 315 317 319 320 321 321 321 322 322 321 321 321
286 286 286 286 287 287 287 288 288 289 289 289 289 290 290 290 291 292 292 293 294 295 295 295 296 296 297 297 297 298 298 298 298 299 299 299 299 299 299 299 300 300 301 302 303 304 305 305 305 305 305 305 308 309 312 314 315 315 317 318 320 321 321 321 322 322 321 321 321
285 286 286 286 286 287 287 287 288 288 288 288 289 289 289 290 291 292 293 294 294 295 296 296 297 297 297 298 298 298 298 299 299 299 299 300 299 299 299 299 299 299 300 301 301 302 303 304 305 306 307 307 308 309 311 313 314 315 316 318 319 320 320 321 322 322 321 321 321
285 285 285 286 286 287 287 287 287 287 287 288 288 289 290 291 292 292 293 293 293 294 294 294 295 295 296 296 297 298 299 299 300 300 300 300 300 300 299 299 300 300 300 300 301 301 302 302 304 306 308 309 309 310 311 312 314 314 315 316 318 319 320 320 321 321 321 321 321
284 285 285 286 286 286 287 287 287 287 287 288 289 290 291 291 292 292 292 291 291 291 291 292 293 293 294 294 295 296 297 298 299 300 301 301 300 300 300 300 300 300 300 301 301 302 302 302 303 304 307 310 311 311 311 312 312 313 314 315 316 317 319 320 320 320 320 320 321
284 285 285 285 286 286 286 286 287 287 288 288 290 290 290 290 290 289 289 289 290 290 291 292 292 293 293 293 294 294 295 296 298 299 300 301 301 301 300 300 300 300 300 301 301 302 302 303 303 304 305 308 311 312 312 312 312 313 313 314 315 316 317 319 320 320 320 320 320
284 284 285 285 285 285 286 286 287 288 288 289 289 289 288 288 288 288 288 289 290 290 291 291 292 292 292 293 293 294 295 296 297 298 299 300 301 301 301 300 300 300 300 300 301 302 302 303 304 304 305 306 309 312 313 314 313 313 313 314 315 316 317 318 319 320 320 320 319
284 284 284 284 285 285 286 286 287 288 288 287 287 286 286 286 287 287 288 289 289 290 290 291 291 292 292 292 293 294 294 295 295 296 296 298 299 301 301 301 300 300 300 300 301 302 302 303 304 304 305 305 307 310 313 314 314 314 314 314 315 315 317 318 318 319 319 320 319
283 283 284 284 285 285 286 286 286 286 285 285 285 285 285 286 287 287 288 288 288 289 289 290 291 291 291 292 292 293 293 294 294 294 295 296 298 300 301 301 301 300 300 300 301 302 302 303 303 304 305 305 307 308 310 313 314 314 314 315 315 316 317 317 318 319 319 319 318
283 283 283 284 285 285 285 285 284 284 284 284 284 285 285 286 286 287 287 288 288 289 289 290 290 291 291 292 292 292 292 293 293 294 295 295 297 299 301 302 301 301 301 301 301 301 302 302 303 304 305 305 306 308 309 312 313 314 314 315 316 316 317 317 317 318 319 318 318
282 283 284 285 285 284 284 283 283 283 283 283 284 285 285 285 286 286 287 287 287 288 288 289 289 290 290 291 291 291 292 292 293 293 294 295 296 298 300 302 302 301 301 301 301 301 302 303 303 304 304 305 306 307 309 310 312 312 314 314 316 316 316 316 316 317 317 318 318
282 283 284 285 284 283 283 282 282 282 283 283 284 284 285 285 286 286 286 287 287 288 288 288 289 289 290 290 291 291 291 292 292 293 293 294 295 297 298 300 302 302 302 301 301 301 301 302 303 304 304 305 306 307 308 309 310 312 312 313 314 316 316 315 315 316 316 316 316
283 283 284 284 283 282 282 282 282 282 283 283 283 284 285 285 285 286 286 287 287 287 287 288 288 289 289 290 290 291 291 292 292 292 293 294 295 296 297 299 301 302 302 302 302 301 301 301 302 303 304 304 305 306 307 309 310 311 312 312 314 315 316 315 315 315 315 315 315
283 283 283 282 282 282 282 282 282 282 282 283 283 284 284 285 285 285 286 286 287 287 287 288 288 289 289 289 290 291 291 291 292 292 293 294 295 296 297 298 300 302 303 303 302 302 302 302 302 303 303 304 305 306 307 308 309 310 311 312 313 314 315 315 315 315 315 315 315
282 282 282 282 281 281 282 282 282 282 282 283 283 284 284 284 285 285 285 286 286 287 287 287 288 289 289 290 290 290 291 291 292 292 293 294 294 295 296 298 299 301 303 304 303 303 302 302 302 302 303 303 304 305 306 308 309 309 310 311 312 313 314 315 315 315 315 316 316
282 281 281 281 281 281 281 282 282 282 282 283 283 283 283 284 284 285 285 285 286 286 287 287 288 288 289 290 290 291 291 291 292 292 293 293 294 295 296 297 299 300 302 304 304 304 303 303 303 303 303 303 304 304 306 307 308 309 309 310 311 312 313 315 315 315 316 316 316
281 281 281 281 281 281 281 282 282 282 282 282 282 283 283 283 284 284 285 285 286 286 287 287 288 288 289 290 290 291 291 291 292 292 293 294 294 295 296 297 298 300 302 303 304 304 304 304 304 304 304 304 304 305 305 306 307 308 309 310 310 311 313 314 315 315 316 316 316
280 280 280 281 281 281 281 281 281 281 282 282 282 282 283 283 283 284 284 285 285 286 286 287 288 289 289 290 290 291 291 291 292 292 293 294 294 295 297 298 299 300 301 303 304 304 304 304 304 305 305 305 305 305 306 307 307 307 308 309 310 311 312 313 315 315 316 316 315
280 280 280 280 280 281 281 281 281 281 281 281 281 282 282 282 283 284 284 285 285 286 286 287 288 288 289 290 290 291 291 291 291 292 293 294 295 296 297 298 300 300 301 303 303 304 304 304 304 305 305 305 305 306 306 307 307 308 308 308 309 310 311 313 314 315 316 316 316
279 279 279 280 280 280 280 280 280 280 280 281 281 281 282 282 283 283 284 284 285 285 286 287 287 288 289 290 290 291 291 291 291 292 292 293 294 295 296 298 299 301 302 303 301 300 300 300 303 304 305 305 306 306 306 307 307 308 308 308 309 310 311 312 313 315 315 316 316
279 279 279 279 279 279 279 279 280 280 280 281 281 281 281 282 282 283 283 284 284 285 286 286 287 288 288 289 289 290 290 290 291 291 291 291 292 293 294 295 296 299 300 301 299 297 297 297 299 300 303 306 306 306 306 306 307 307 308 308 308 309 310 311 312 313 315 315 316
278 278 278 279 279 279 279 279 279 280 280 280 280 281 281 282 282 283 283 283 284 285 285 286 287 287 287 288 289 289 289 289 290 290 290 290 291 291 293 294 295 297 298 297 296 296 296 296 296 297 300 305 306 306 306 306 307 307 307 307 307 308 308 309 311 312 313 314 315
278 278 278 278 278 278 279 279 279 279 279 280 280 281 281 282 282 282 283 283 284 284 285 285 286 286 287 287 288 288 289 289 289 289 290 290 290 291 292 293 294 295 296 295 295 295 295 295 296 296 297 300 305 306 307 307 307 307 307 307 307 307 307 308 309 311 312 313 314
277 277 278 278 278 278 278 278 278 279 279 280 280 281 281 281 282 282 282 283 283 283 284 284 285 286 286 286 287 287 288 288 289 289 289 289 290 290 291 292 293 294 294 294 294 294 295 295 295 295 295 297 302 305 307 307 307 307 307 307 307 307 306 307 308 309 311 312 313
277 277 277 277 277 278 278 278 278 279 279 280 280 280 280 281 281 281 282 282 282 283 283 284 284 285 285 286 286 287 287 288 288 288 288 288 289 289 290 291 292 293 293 293 293 294 294 294 295 295 295 294 298 303 306 307 307 307 307 307 307 307 306 306 306 307 309 310 312
277 277 277 277 277 277 277 278 278 279 279 279 280 280 280 280 280 281 281 281 282 282 283 283 284 284 285 285 286 286 287 287 288 288 288 288 288 288 289 290 291 291 292 292 292 293 293 294 294 294 294 293 296 301 305 306 307 307 307 308 308 307 306 306 306 307 307 308 310
276 276 276 276 276 277 277 278 278 279 279 279 279 279 279 280 280 280 281 281 281 282 282 283 283 284 284 285 285 286 286 287 287 287 287 288 288 288 288 289 290 290 290 291 292 292 293 293 293 293 293 292 294 298 303 305 306 307 307 308 308 308 307 307 307 307 307 307 308
276 276 276 276 276 277 277 277 278 278 278 279 279 279 279 279 279 280 280 281 281 282 282 282 283 283 283 284 285 285 286 286 287 287 287 287 287 288 288 288 289 289 290 290 291 291 291 292 292 292 292 291 293 297 301 304 305 307 307 307 308 308 308 308 308 307 307 307 308
275 275 275 276 276 276 277 277 278 278 278 278 278 278 279 279 279 279 280 280 281 281 282 282 282 283 283 284 284 285 285 286 286 287 287 287 287 287 287 287 288 289 289 290 290 290 290 291 291 292 291 291 293 297 300 303 305 306 307 307 308 308 308 308 308 308 307 307 307
275 275 275 275 276 276 276 277 277 277 278 277 278 278 278 278 278 279 279 280 281 281 282 282 282 283 283 284 284 285 285 285 286 286 287 287 287 286 286 287 287 288 289 289 289 290 290 291 291 291 291 292 295 298 300 303 304 305 306 306 307 308 308 308 308 309 308 308 308
275 275 275 275 276 276 276 277 277 277 277 277 277 277 278 278 278 279 280 280 281 281 281 281 282 282 282 283 284 284 284 285 286 286 286 286 286 286 286 286 287 287 288 289 289 290 290 291 291 291 292 293 296 299 301 303 305 305 306 306 307 307 308 308 309 309 309 309 309
275 275 275 275 275 276 276 276 276 276 276 276 277 277 277 278 278 279 280 280 280 280 280 281 281 281 282 282 283 284 284 285 285 286 286 286 286 286 286 286 286 287 287 288 289 290 290 291 291 291 292 294 296 298 301 303 305 306 306 306 307 307 308 308 309 309 310 310 309
274 275 275 275 275 276 276 276 276 276 276 276 276 277 277 278 278 279 280 280 280 280 280 280 280 281 281 282 283 283 284 285 285 285 286 286 286 286 286 286 286 287 287 288 289 289 290 290 291 291 292 293 295 297 300 303 305 306 306 307 307 307 308 308 309 309 309 309 305
274 275 275 275 275 275 276 276 276 276 276 276 276 277 277 278 278 279 280 280 280 280 280 280 280 281 281 282 282 283 284 285 285 286 286 286 286 286 286 286 286 286 287 288 289 289 290 290 291 291 292 293 295 297 300 302 304 305 306 307 307 307 307 308 309 309 309 309 303
274 275 275 275 275 275 275 275 275 276 276 276 276 277 277 278 278 279 280 280 280 280 280 280 280 281 281 282 282 283 283 284 285 285 286 286 286 286 286 286 286 286 287 288 288 289 290 290 291 291 292 293 296 298 300 301 303 304 305 306 306 305 306 307 307 308 308 308 305
274 275 275 275 275 275 275 275 275 276 276 276 276 277 277 278 278 279 279 279 279 280 280 280 280 280 281 281 282 282 283 284 284 285 285 286 286 286 286 286 286 286 287 287 288 289 290 290 291 292 292 293 296 298 299 301 302 303 304 305 305 305 305 305 306 306 306 307 307
Wind_Speed
9 8 8 7 7 7 7 7 7 7 7 7 8 8 8 8 8 8 7 7 7 7 7 8 8 8 8 9 10 10 10 10 11 11 11 11 11 10 10 10 10 10 10 10 10 10 11 11 11 9 8 8 9 9 9 8 9 9 9 9 10 11 12 14 13 13 13 13 10
10 9 9 8 8 7 7 7 7 7 7 7 7 8 8 8 8 8 8 8 8 8 8 8 9 9 10 11 11 12 12 12 12 12 12 12 12 11 10 10 10 10 10 10 11 10 10 11 11 10 9 8 9 9 10 9 9 10 11 11 10 9 10 12 13 13 14 13 11
10 9 9 9 9 8 8 7 7 8 9 8 8 8 8 8 8 8 8 8 9 9 9 8 9 9 10 11 11 11 12 13 13 13 13 12 12 12 11 11 11 11 11 11 11 10 10 10 10 9 9 8 9 9 10 10 10 10 11 12 9 8 8 9 10 11 11 11 11
10 10 9 9 11 11 10 9 9 10 10 8 8 8 8 8 8 8 8 9 9 9 9 9 9 9 9 10 11 12 12 12 13 14 14 13 14 14 13 13 13 14 14 13 12 12 11 11 10 10 10 10 11 10 10 9 9 9 9 9 8 7 7 7 8 8 9 9 10
10 10 10 10 12 12 11 10 11 11 10 8 8 8 8 8 8 8 8 8 8 9 9 10 11 10 10 11 13 14 14 15 14 13 13 14 14 14 14 14 14 13 12 11 12 12 13 13 11 10 10 10 10 10 10 10 9 9 8 7 7 7 7 6 7 7 7 8 9
10 11 11 11 12 12 11 10 12 12 10 9 9 9 9 8 8 9 9 9 9 10 11 11 11 11 11 13 14 15 15 15 14 14 14 14 14 14 14 15 14 13 12 11 11 12 12 12 10 9 10 10 10 11 11 11 10 9 9 8 8 7 7 8 7 6 7 8 9
12 12 12 12 12 12 12 12 12 11 11 10 11 12 12 11 11 12 12 11 10 10 9 9 9 10 11 12 13 13 13 13 14 14 14 14 14 14 14 14 14 14 13 13 13 12 11 10 8 8 9 9 9 11 12 11 10 10 10 9 8 7 7 9 7 7 7 10 12
12 12 12 12 12 12 12 13 12 12 11 10 11 13 14 15 15 15 13 11 9 8 8 7 9 11 12 12 12 12 13 13 13 14 14 14 14 14 14 14 14 14 14 14 13 12 11 10 8 8 8 9 9 10 11 12 12 11 11 10 8 7 7 7 7 7 8 11 13
11 12 12 12 12 12 13 13 13 13 13 12 13 14 15 15 14 13 11 9 8 9 9 9 11 13 14 14 14 14 13 12 13 13 13 13 14 14 14 13 14 14 14 13 13 13 12 10 9 9 9 8 9 10 11 12 13 13 12 10 9 8 7 7 8 8 9 11 13
11 12 12 12 13 13 13 14 14 14 14 14 14 14 14 12 11 10 10 9 10 11 11 11 12 13 14 14 14 14 13 13 12 13 13 13 14 14 13 12 13 13 13 12 12 12 12 10 10 10 10 10 10 11 12 13 14 13 12 9 9 9 9 9 9 10 10 10 12
12 12 12 12 13 13 14 14 13 13 12 12 13 12 12 12 12 11 11 11 12 12 13 12 13 13 13 13 13 13 13 12 12 13 14 14 14 13 13 12 13 13 13 12 11 11 10 9 10 11 13 13 12 12 13 14 14 14 13 10 10 11 12 11 11 11 11 11 12
12 12 12 12 13 13 13 13 11 11 11 11 12 12 13 13 13 13 13 13 13 13 13 13 13 13 13 12 12 13 13 13 13 14 15 15 15 14 13 13 13 13 13 13 11 10 9 10 11 12 13 14 13 11 11 13 14 14 13 12 12 12 13 13 12 10 10 11 12
12 12 13 13 13 13 12 11 10 10 10 11 12 12 13 13 14 14 13 13 13 12 12 12 13 13 13 12 12 13 13 13 14 15 15 16 16 15 13 13 13 13 13 12 11 10 10 11 12 13 13 14 13 12 11 11 11 11 12 12 12 13 13 13 11 10 10 11 12
12 13 13 13 13 12 10 10 9 10 11 12 12 12 13 13 13 13 12 12 13 12 12 12 12 11 11 12 13 13 14 14 15 16 16 17 17 16 14 12 12 12 12 11 11 11 12 12 12 13 13 14 14 14 13 12 10 9 10 11 12 13 13 11 10 9 9 11 12
13 13 13 12 11 10 9 10 10 10 11 12 12 12 12 12 12 12 12 12 13 13 12 12 11 11 12 13 14 14 15 15 16 16 17 17 17 17 15 12 12 12 11 11 11 11 12 13 13 13 13 14 14 15 14 13 11 10 9 10 11 12 11 10 9 8 9 10 11
13 13 12 11 10 10 10 10 9 10 11 11 11 12 12 12 11 11 12 13 12 12 11 12 12 12 12 13 14 14 15 15 15 16 16 16 16 16 15 13 12 11 11 11 11 11 12 12 12 13 13 14 14 14 14 14 12 11 11 11 11 11 10 8 8 8 9 9 9
13 12 11 10 11 11 11 11 10 10 11 12 12 12 12 12 11 11 11 12 12 12 12 14 13 13 12 12 13 13 13 13 14 14 15 15 16 16 16 15 12 11 11 12 12 12 12 12 12 12 13 14 14 14 14 14 13 12 11 12 11 11 10 8 8 8 9 9 9
13 12 11 11 12 12 13 13 12 12 12 13 13 12 12 12 12 12 12 12 13 13 14 15 14 14 13 14 13 12 12 12 13 14 14 15 16 16 16 16 14 12 12 12 12 12 12 13 13 12 13 13 14 14 14 14 13 12 12 12 12 11 11 10 9 9 9 9 8
13 12 12 12 13 13 14 14 13 13 13 13 13 13 13 13 13 13 13 13 13 14 15 15 14 14 14 15 14 13 12 12 14 15 15 15 16 16 16 16 15 13 12 12 12 12 13 13 13 13 13 13 13 14 14 14 13 12 12 12 12 12 12 11 10 10 9 9 8
13 13 13 13 13 14 14 14 14 14 13 13 13 13 14 14 14 14 14 14 14 14 15 15 14 14 14 15 15 14 13 12 13 14 15 15 15 16 16 16 15 14 13 12 12 12 12 12 13 13 13 13 13 14 14 14 13 13 12 11 12 12 12 12 11 10 10 9 8
13 13 13 14 14 14 14 13 14 14 14 14 14 14 14 14 14 14 15 15 15 15 15 15 15 15 15 15 14 14 13 11 13 14 15 15 15 16 16 15 15 14 13 12 11 12 12 12 13 13 13 13 14 14 14 13 13 13 13 11 11 12 13 13 12 11 11 10 9
14 14 14 14 14 14 14 14 14 14 14 14 14 14 14 14 14 14 15 15 15 15 15 15 15 15 15 14 14 13 13 12 13 13 14 14 14 15 15 14 14 14 13 13 12 11 12 12 13 13 13 13 13 14 14 13 13 13 13 13 13 13 13 13 12 12 11 11 10
14 14 14 13 14 14 14 14 14 14 14 14 14 14 14 14 14 15 15 15 14 14 14 14 14 14 14 14 14 13 13 12 13 13 14 14 14 14 14 14 13 14 14 13 12 11 11 11 12 12 13 12 13 13 14 14 13 13 13 13 13 13 14 13 12 12 12 11 10
15 15 14 13 14 14 14 14 14 14 14 14 14 14 14 15 15 14 14 14 14 14 14 13 13 14 14 14 14 13 13 13 13 14 14 14 14 14 13 12 12 12 12 11 11 10 10 9 9 10 11 11 12 12 12 13 13 13 13 13 13 13 13 13 13 12 12 11 10
15 15 15 14 15 15 15 14 14 14 14 14 14 15 15 15 15 14 14 14 14 15 15 14 14 14 13 13 13 12 12 12 13 13 13 14 14 14 13 12 11 11 10 10 10 11 12 11 10 9 9 9 10 11 11 12 13 12 12 12 12 12 13 13 14 13 12 12 11
15 16 16 16 16 16 16 15 15 15 15 15 15 15 15 15 14 14 15 15 15 15 15 14 14 13 12 12 12 12 11 11 11 12 13 13 13 13 13 11 11 10 10 11 11 12 13 14 13 12 10 9 10 10 10 11 12 12 12 12 12 12 12 13 13 13 13 12 11
15 15 15 16 16 16 16 16 16 15 15 15 15 15 15 15 14 14 15 15 15 15 14 13 13 12 11 11 11 12 11 11 11 12 13 13 13 13 13 11 10 10 10 12 14 15 14 14 14 14 13 11 11 10 10 10 11 12 12 12 12 12 12 13 13 13 13 12 12
15 15 16 16 16 16 16 16 16 16 16 16 16 15 15 15 15 15 15 15 15 14 13 12 11 10 10 9 11 12 12 12 12 11 12 12 13 13 13 11 11 10 11 12 15 17 17 16 15 15 15 13 12 11 11 11 11 11 11 11 12 12 13 13 12 12 12 12 11
16 16 16 16 17 17 16 16 17 17 17 17 16 16 16 16 16 16 15 15 15 14 13 11 10 9 9 10 12 12 13 13 12 11 11 12 13 13 13 13 12 12 13 14 15 16 18 19 17 16 15 16 13 11 10 10 10 10 10 10 11 11 12 12 12 12 11 11 11
16 16 16 17 17 17 17 16 17 17 17 16 17 17 17 16 16 16 15 15 15 14 13 12 11 12 12 13 13 13 12 12 11 11 12 13 13 14 13 13 13 13 14 15 16 16 17 19 19 18 16 16 14 12 11 10 10 10 10 10 11 11 12 12 13 13 12 12 11
17 17 17 17 17 17 17 17 17 17 17 17 17 17 17 17 16 16 16 15 15 14 14 14 14 15 15 15 14 13 13 13 12 12 12 13 14 14 14 15 15 15 15 16 16 17 17 18 19 19 18 16 14 12 12 11 11 11 10 10 11 12 12 12 13 14 14 14 13
17 17 17 18 18 18 18 17 17 17 17 18 18 18 17 17 17 16 16 15 15 15 15 15 16 16 16 15 15 14 14 13 13 12 12 13 14 15 15 15 15 15 15 16 16 17 18 18 19 20 20 18 14 13 14 14 13 12 12 12 13 13 13 12 13 14 15 15 14
17 17 18 18 18 18 18 18 17 17 18 18 17 17 17 17 17 17 16 15 15 15 16 16 16 16 16 16 15 15 15 14 13 13 13 14 14 15 16 15 14 13 14 16 17 18 18 19 20 20 21 20 16 15 15 15 13 12 12 12 13 14 14 14 14 14 15 15 15
18 18 18 18 18 18 18 18 18 18 18 18 17 17 17 17 18 17 16 15 15 15 15 15 15 15 15 15 15 15 15 13 13 14 14 14 15 16 16 15 12 12 14 17 18 19 20 20 21 21 21 20 16 15 14 15 14 13 13 13 13 13 14 14 15 15 15 15 15
18 18 18 18 18 18 18 18 18 18 18 18 18 18 18 18 18 17 17 16 16 15 15 15 15 15 15 15 15 15 15 15 15 15 15 15 15 16 16 16 14 15 17 19 20 20 20 21 21 21 20 18 14 13 13 15 14 15 15 15 15 15 15 15 14 14 14 14 15
18 18 19 19 18 18 18 18 18 18 18 18 18 18 18 18 17 17 16 17 16 16 16 16 16 16 16 16 15 15 15 16 16 16 15 15 15 16 17 17 17 18 19 20 20 21 21 21 21 20 19 16 13 12 12 12 12 13 15 16 15 15 15 15 14 14 14 14 14
18 18 18 19 18 18 18 18 18 18 18 18 18 18 18 18 17 16 16 16 16 16 17 16 17 17 17 17 16 16 16 16 17 17 16 15 16 16 17 18 18 19 19 20 21 21 21 21 21 20 18 14 13 12 12 11 10 11 13 15 15 15 15 14 14 14 14 14 14
18 18 18 18 18 18 18 18 18 18 18 18 18 18 17 17 16 16 15 15 15 16 17 17 17 17 17 17 17 17 17 17 17 17 17 16 16 16 18 19 19 19 19 20 22 22 22 22 22 20 18 14 13 12 12 10 10 10 11 11 12 13 13 12 11 12 13 15 15
17 17 18 18 18 18 18 18 18 18 18 18 17 17 17 16 15 15 15 15 15 16 16 17 17 17 17 18 17 17 18 17 17 16 16 16 16 17 18 19 20 19 20 21 22 23 23 23 22 21 18 15 13 12 11 10 10 10 10 10 10 10 11 10 10 10 11 14 15
17 17 17 17 18 18 18 18 18 17 17 17 17 17 17 16 16 15 15 14 15 15 16 16 17 17 17 17 17 17 18 17 17 16 15 15 16 17 18 19 19 20 20 21 23 23 23 23 22 21 18 14 12 11 10 10 10 10 10 9 8 8 8 9 9 9 10 12 14
16 17 17 17 17 17 18 18 18 17 17 16 17 16 16 16 15 15 15 14 15 15 15 14 16 17 18 17 16 17 17 18 17 16 16 16 16 17 17 17 18 19 20 21 22 23 23 23 22 21 19 14 12 10 9 9 10 10 10 10 8 8 7 8 8 9 9 11 11
Wind_Direction
311 311 309 307 305 301 298 295 293 291 291 291 290 289 289 287 285 284 283 282 281 281 282 283 283 284 285 285 285 284 283 281 278 275 272 269 266 263 260 258 256 255 255 255 255 256 258 259 260 260 260 258 259 259 258 256 257 255 248 236 225 219 219 222 226 226 224 222 223
311 310 307 304 301 298 296 295 292 291 291 290 289 288 287 285 284 284 283 282 282 282 283 283 284 284 284 285 285 283 282 280 277 275 273 271 268 265 262 259 256 255 254 254 253 252 253 254 256 257 257 255 253 252 249 246 246 250 252 250 239 225 215 215 221 223 224 222 220
310 309 308 305 304 302 299 297 295 293 291 289 287 286 285 283 282 281 280 279 279 279 280 281 281 280 279 279 278 277 276 275 274 273 271 269 268 266 264 262 261 259 257 255 252 250 250 251 253 254 254 252 250 248 245 241 238 240 245 248 245 235 223 216 214 216 219 221 218
309 310 310 308 307 305 302 299 297 295 292 290 288 285 283 281 280 279 278 278 278 277 276 278 280 279 278 276 275 273 271 270 269 269 268 267 266 264 263 262 261 259 257 254 252 250 250 250 252 253 252 250 249 247 243 239 236 237 240 242 243 239 231 221 212 210 212 216 215
313 313 313 311 310 307 304 300 299 297 296 294 291 289 286 283 282 281 280 279 277 275 275 276 279 280 280 278 276 274 272 270 268 267 266 264 263 263 261 260 259 259 257 253 249 247 246 246 248 250 250 249 247 245 242 239 238 240 242 243 241 238 235 230 221 215 212 213 212
317 315 313 310 308 306 303 300 299 299 297 295 293 291 289 287 285 283 282 279 278 277 276 275 275 275 275 273 271 270 269 267 265 263 262 261 261 260 259 259 259 260 261 261 257 253 249 244 245 247 247 248 249 247 245 240 239 240 242 243 235 231 229 229 225 219 214 213 211
317 315 312 308 306 304 302 301 300 299 298 295 293 291 289 287 284 282 280 278 278 278 278 278 277 276 275 273 270 268 266 265 263 261 259 258 257 256 255 255 256 256 258 260 262 262 261 256 251 247 245 245 246 246 244 240 239 240 241 242 235 227 220 219 218 217 215 214 212
314 311 308 306 304 303 302 303 302 300 298 295 293 290 288 285 283 281 280 280 284 290 295 296 294 293 291 288 284 280 275 270 267 263 260 257 255 253 252 251 252 253 253 253 254 256 259 262 259 253 246 241 241 241 240 238 238 240 243 245 244 236 226 218 214 213 214 214 213
311 309 307 305 305 305 304 304 302 299 297 293 290 288 286 285 286 288 292 297 303 306 306 301 299 298 297 296 295 293 289 283 277 271 265 260 255 252 249 248 249 250 250 249 248 248 250 253 256 257 255 246 240 237 235 235 237 240 243 249 252 247 238 226 216 214 214 215 215
310 309 309 308 308 307 305 303 300 296 293 290 289 289 291 296 302 309 313 313 308 304 299 295 294 293 292 292 292 292 292 290 287 283 277 270 261 253 247 244 244 246 247 246 246 245 245 246 248 253 257 258 247 237 231 230 233 237 240 246 253 254 250 236 221 215 214 216 216
309 310 310 309 308 306 303 301 297 294 292 291 296 303 310 316 318 317 312 307 301 297 294 291 290 290 289 289 289 289 288 288 288 288 287 283 272 261 249 242 241 242 244 245 245 245 244 243 244 248 253 260 258 246 231 223 227 231 236 241 248 254 253 244 230 219 215 215 216
310 311 309 307 305 303 300 298 297 298 300 305 313 318 320 317 313 309 304 300 297 295 293 293 293 293 293 293 293 292 291 290 290 291 291 291 285 273 258 244 240 239 241 243 243 243 244 244 244 246 250 257 263 259 244 226 222 225 230 237 243 248 251 248 238 229 220 215 216
311 310 308 305 302 301 300 302 306 310 315 318 319 317 313 308 305 303 301 298 297 297 297 297 296 296 295 295 295 295 295 295 295 295 294 294 292 283 269 251 242 238 239 241 241 242 243 244 246 247 250 253 260 264 262 247 229 223 225 233 238 242 245 246 242 238 232 225 220
310 308 305 302 302 303 308 316 319 320 319 316 312 309 306 304 303 301 300 299 299 299 299 299 297 295 294 294 295 295 296 296 295 294 293 292 291 287 278 259 246 239 238 239 240 240 242 244 246 248 250 253 257 261 265 264 251 237 231 232 236 238 240 241 241 241 239 235 229
308 305 302 301 306 313 321 325 322 318 313 309 306 305 304 303 303 302 301 301 301 300 299 299 297 295 294 295 295 295 295 294 293 291 290 289 289 288 282 269 252 242 238 237 238 240 241 243 245 247 250 252 255 258 261 263 261 254 247 242 241 239 237 234 235 238 240 240 235
306 303 303 307 317 323 326 323 317 312 308 306 305 304 304 303 302 302 301 301 301 299 298 298 297 297 296 295 295 294 294 292 291 290 289 288 288 288 287 279 262 248 240 238 238 240 241 243 245 247 249 252 254 256 257 258 258 257 255 254 252 248 242 232 230 232 236 240 239
306 306 309 318 324 325 323 318 313 309 307 306 305 304 302 302 302 301 300 299 299 298 298 298 298 297 296 294 294 293 292 291 290 289 288 287 287 288 288 286 274 259 246 240 240 240 242 243 245 247 249 251 254 255 256 256 256 255 255 257 258 257 251 239 230 229 232 237 239
308 311 317 324 325 323 319 315 312 309 307 306 305 304 303 302 302 300 299 298 298 297 297 297 296 296 295 294 293 292 291 290 289 288 287 286 286 286 286 286 281 270 256 245 241 240 241 243 244 246 248 250 253 254 255 255 254 253 254 255 258 259 256 249 238 232 231 233 237
313 317 322 325 323 320 317 314 312 309 308 306 305 304 303 303 302 301 299 298 298 297 297 296 295 293 292 292 291 290 289 288 288 287 286 285 284 283 283 283 282 277 266 253 245 241 240 241 243 245 247 249 251 253 253 253 252 251 252 253 255 257 257 254 246 239 233 232 236
318 322 324 324 321 318 315 313 311 309 308 307 306 305 304 303 303 302 301 299 298 297 296 294 292 291 290 290 290 290 289 289 289 288 287 285 284 282 282 282 282 280 274 262 251 244 240 239 241 243 245 247 249 251 251 252 251 250 250 251 253 255 256 255 251 245 239 234 236
322 324 324 322 319 316 313 312 310 309 308 307 307 306 305 305 304 303 301 300 299 297 295 293 291 290 289 288 289 290 290 290 290 289 288 286 284 283 282 281 282 281 277 269 258 248 242 239 239 240 242 245 247 248 249 249 248 248 247 248 250 252 254 255 254 249 244 238 236
324 324 322 319 317 314 313 311 310 310 309 308 308 307 307 306 305 303 302 300 299 297 295 294 292 291 290 289 289 290 291 291 291 290 289 287 285 283 282 280 280 279 277 274 265 255 246 241 239 239 240 243 244 245 246 247 246 245 245 245 247 250 252 254 253 251 247 242 237
324 323 320 317 316 314 313 312 312 310 310 310 310 309 308 307 305 303 302 301 299 298 297 295 294 292 292 292 292 292 292 292 291 290 289 287 286 284 282 279 276 274 273 271 267 259 251 244 241 240 240 242 244 245 245 245 244 243 243 243 245 247 250 252 252 251 248 244 238
323 322 320 317 317 316 315 314 313 313 312 312 311 310 309 308 306 304 303 302 301 300 299 297 296 295 294 293 293 293 293 292 291 291 291 291 291 290 288 284 278 272 268 264 258 252 247 244 242 241 241 241 243 244 245 244 243 242 241 241 242 244 246 249 249 248 246 242 237
322 321 320 318 318 318 317 317 316 315 314 313 313 311 310 309 308 306 305 304 303 302 301 300 299 298 297 295 294 293 293 292 294 295 297 297 298 298 298 295 291 286 280 272 257 244 236 232 233 237 240 241 242 244 245 245 244 243 241 240 239 240 242 244 245 245 243 239 235
321 320 320 320 319 319 319 319 318 317 315 314 314 313 312 311 309 308 307 306 305 304 304 303 302 301 299 297 295 294 294 294 296 298 299 299 298 297 296 294 293 292 291 290 280 263 245 231 227 227 230 236 240 242 244 245 244 244 243 242 240 239 238 239 240 240 238 236 233
320 320 320 320 320 320 320 320 319 318 317 316 315 314 313 312 311 310 309 308 307 307 306 305 304 303 300 298 297 296 297 297 298 297 297 296 295 293 291 288 285 284 284 288 292 289 278 256 239 230 227 229 234 237 241 244 244 244 243 243 242 240 239 239 239 238 237 234 232
321 320 320 321 321 321 321 320 320 319 318 317 316 315 314 313 312 312 311 310 310 310 309 308 307 305 303 300 300 299 299 299 298 297 296 295 294 293 291 289 286 283 282 284 290 293 294 288 269 250 237 232 233 235 237 241 242 242 242 241 241 240 240 240 240 240 238 235 232
322 321 321 322 322 322 321 322 321 320 319 318 317 317 316 315 314 314 313 313 313 313 312 310 309 307 304 302 301 300 300 299 299 299 298 297 296 295 294 292 290 288 287 287 289 292 295 297 291 276 256 242 239 237 236 236 238 238 239 237 237 237 237 238 240 240 240 238 235
324 323 322 322 322 322 322 322 321 321 320 319 319 318 317 316 316 316 316 315 314 313 311 310 308 306 304 303 302 302 301 300 300 300 299 299 298 297 296 295 294 292 291 291 291 292 293 295 296 292 279 257 250 245 242 237 236 236 236 235 233 232 232 234 236 238 239 239 238
325 324 323 323 323 323 322 322 321 321 321 320 319 319 318 318 318 318 317 316 314 311 309 308 306 305 304 304 303 302 301 301 300 300 300 299 299 299 298 298 296 294 292 291 290 290 291 292 294 296 294 281 266 256 249 242 238 235 234 234 231 228 228 229 231 233 235 237 238
325 324 324 323 323 322 322 322 322 321 321 320 320 319 319 319 318 318 317 315 313 311 310 309 308 307 307 307 305 304 303 301 301 300 300 300 300 300 299 298 297 294 292 290 290 290 290 291 293 295 296 295 285 272 260 250 243 237 235 235 232 230 227 225 227 229 230 232 233
325 324 324 323 322 322 322 322 322 321 321 321 321 320 319 318 318 317 316 314 313 312 311 310 309 309 308 308 307 305 304 302 300 300 300 300 300 300 299 298 296 293 291 291 291 291 291 291 291 291 292 294 291 283 271 257 248 240 236 234 233 231 229 226 226 226 226 228 229
325 324 323 322 321 321 321 321 321 322 321 321 321 320 320 318 317 316 315 314 313 312 311 310 309 308 307 307 306 305 304 302 301 301 301 301 301 300 299 298 295 293 292 292 292 291 290 289 288 288 289 290 290 285 275 262 252 243 236 233 232 231 230 228 226 226 225 225 226
324 323 322 321 321 320 320 321 321 321 321 321 321 320 319 318 317 316 315 314 313 312 311 310 309 308 307 306 305 304 303 303 302 302 301 302 301 300 299 298 296 295 295 294 293 292 290 289 288 288 288 289 288 285 277 265 253 243 236 233 231 230 229 228 227 226 225 224 224
323 322 321 320 320 320 320 320 321 321 321 321 321 320 319 317 316 315 314 313 313 313 312 312 311 310 309 308 307 306 305 304 304 303 303 303 303 302 301 300 299 299 299 298 296 294 292 291 289 289 290 290 289 286 279 269 255 244 236 232 230 229 227 227 226 226 224 223 223
322 321 320 319 319 319 320 320 321 321 321 320 319 319 317 316 314 314 314 315 314 314 313 313 312 311 310 309 308 306 305 305 304 304 304 304 304 304 304 303 303 302 302 301 299 297 295 292 291 290 290 291 290 287 283 274 261 247 238 233 231 228 226 225 225 225 224 223 222
320 319 319 318 318 319 319 320 320 320 319 318 317 316 316 315 314 314 315 316 315 314 313 312 311 310 309 308 306 305 304 304 304 304 304 304 305 305 305 305 304 304 303 302 300 297 295 292 290 289 288 287 288 287 284 277 266 253 242 234 231 228 225 223 223 223 223 222 220
319 318 317 317 317 318 318 319 319 318 317 316 315 314 314 315 314 314 315 314 313 311 311 310 309 308 307 307 305 304 304 303 303 303 303 303 304 304 304 303 303 302 301 300 298 296 293 290 288 287 285 283 283 283 280 276 268 259 249 239 234 229 225 222 221 223 224 223 219
318 317 317 317 317 317 317 317 316 316 315 314 314 314 314 314 313 313 312 311 310 309 308 306 306 305 305 305 304 303 303 303 303 302 302 302 302 302 302 300 300 299 299 298 296 294 291 289 287 286 284 282 281 280 278 275 269 261 252 242 235 230 226 223 223 225 227 227 222
317 317 317 317 317 317 316 316 314 314 313 313 313 313 313 312 311 311 311 310 309 308 306 304 304 304 304 304 303 302 302 301 302 302 301 301 300 300 300 298 297 297 296 296 294 292 291 289 288 287 285 282 283 282 281 279 272 263 254 245 237 232 229 228 228 229 231 231 228